Location: Unspecified
(48.5539°N, 71.6350°W)
Time: 14:56:25
(UTC-04:00)

ISS - Pass Details

Date: 04 June 2019
Orbit: 408 x 418 km, 51.6° (Epoch: 18 June)

Event Time Altitude Azimuth Distance (km) Brightness Sun altitude
Rises 21:49:24 0° 282° (WNW) 2,354 1.0 -8.9°
Reaches altitude 10° 21:52:26 10° 252° (WSW) 1,489 -0.7 -9.2°
Maximum altitude 21:53:56 13° 225° (SW) 1,344 -1.2 -9.3°
Drops below altitude 10° 21:55:25 10° 198° (SSW) 1,487 -1.3 -9.5°
Enters shadow 21:56:26 - 185° (S) 1,718 -1.1 -9.6°
